Total_Precipitation_Accumulation
1.83 2.05 2.33 2.73 3.47 4.16 4.79 4.85 5.01 4.44 3.79 3.22 2.81 2.64 2.39 2.14 2.10 1.96 1.77 1.63 1.44 1.36 1.48 1.33 1.25 1.22 1.30 1.29 1.41 1.52 1.55 1.30 1.48 1.71 1.30 0.92 0.69 0.61 0.49 0.46 0.53 0.56 0.63
1.92 2.28 2.80 3.13 3.12 3.61 4.27 4.25 3.87 3.55 3.09 2.62 2.40 2.22 2.12 1.87 1.69 1.52 1.42 1.27 1.17 1.18 1.20 1.19 1.05 1.04 1.13 1.11 1.18 1.30 1.31 1.16 1.38 1.58 1.57 1.22 0.94 0.73 0.47 0.47 0.47 0.55 0.67
1.77 2.20 2.61 2.99 2.94 3.25 3.33 2.89 2.59 2.53 2.43 2.20 2.08 2.02 1.95 1.76 1.46 1.18 1.06 0.99 0.93 0.90 0.88 0.87 0.89 0.94 0.90 0.96 1.04 1.18 1.32 1.20 1.15 1.34 1.55 1.35 1.05 0.88 0.67 0.63 0.68 0.77 0.87
1.16 1.47 1.79 2.21 2.40 2.42 2.29 2.15 2.04 1.99 2.11 2.08 1.86 1.70 1.40 1.25 1.09 0.92 0.92 0.92 0.82 0.75 0.71 0.71 0.80 0.87 0.88 0.98 0.87 0.92 1.11 1.20 1.07 1.09 1.16 1.20 1.27 1.23 0.97 0.72 0.67 0.77 0.84
0.79 0.99 1.10 1.31 1.59 1.76 1.74 1.64 1.84 1.91 1.90 1.84 1.77 1.71 1.45 1.22 1.10 1.08 1.11 1.02 0.90 0.77 0.69 0.67 0.67 0.76 0.85 0.91 0.90 0.93 0.94 0.99 0.96 0.94 0.96 1.04 1.14 1.13 1.10 0.90 0.73 0.71 0.64
0.61 0.78 0.84 0.88 1.00 1.10 1.16 1.23 1.45 1.64 1.66 1.61 1.58 1.58 1.48 1.33 1.16 1.07 1.01 0.93 0.88 0.80 0.72 0.69 0.71 0.69 0.70 0.74 0.79 0.83 0.84 0.89 0.91 0.89 0.92 1.01 1.00 1.00 1.12 1.02 0.86 0.78 0.66
0.44 0.53 0.59 0.64 0.70 0.72 0.78 0.88 1.06 1.22 1.33 1.38 1.38 1.38 1.47 1.33 1.13 0.94 0.92 0.86 0.75 0.71 0.70 0.68 0.75 0.79 0.77 0.75 0.76 0.78 0.84 0.90 0.94 0.93 0.92 0.97 1.00 1.00 1.10 1.10 0.94 0.87 0.84
0.35 0.34 0.36 0.39 0.48 0.48 0.55 0.64 0.72 0.82 0.94 1.13 1.27 1.18 1.23 1.12 0.99 1.04 0.97 0.84 0.69 0.70 0.82 0.83 0.81 0.81 0.82 0.81 0.91 0.89 0.91 0.95 0.96 0.92 1.03 1.06 0.99 1.07 1.15 1.27 1.31 1.16 1.10
0.30 0.29 0.26 0.25 0.29 0.31 0.36 0.46 0.61 0.74 0.78 0.86 1.06 1.13 1.06 1.01 1.03 1.07 1.01 0.91 0.82 0.73 0.80 0.84 0.87 0.85 0.84 0.88 0.99 0.98 1.01 1.08 1.06 1.07 1.17 1.19 1.15 1.16 1.15 1.30 1.45 1.48 1.39
0.32 0.35 0.26 0.21 0.25 0.27 0.31 0.42 0.53 0.70 0.84 0.83 0.83 0.88 1.03 1.08 1.13 1.11 0.94 0.86 0.83 0.80 0.79 0.77 0.81 0.84 0.85 0.92 1.07 1.08 1.13 1.24 1.25 1.22 1.25 1.28 1.28 1.34 1.30 1.32 1.46 1.57 1.61
0.27 0.30 0.23 0.21 0.25 0.27 0.32 0.40 0.50 0.74 0.89 0.81 0.82 0.90 1.00 1.06 1.10 1.23 1.14 0.98 0.90 0.85 0.79 0.74 0.75 0.75 0.76 0.84 0.98 1.11 1.21 1.30 1.31 1.28 1.31 1.31 1.39 1.42 1.32 1.36 1.43 1.54 1.66
0.27 0.29 0.27 0.30 0.30 0.34 0.37 0.45 0.53 0.69 0.79 0.80 0.84 0.88 0.94 0.97 0.98 1.03 1.08 1.08 0.97 0.88 0.83 0.81 0.79 0.68 0.66 0.76 0.88 1.02 1.19 1.31 1.38 1.40 1.42 1.29 1.30 1.40 1.41 1.42 1.43 1.45 1.58
0.40 0.37 0.36 0.42 0.38 0.38 0.44 0.50 0.59 0.67 0.76 0.91 0.89 0.84 0.84 0.79 0.79 0.85 0.91 0.99 1.05 1.06 1.01 0.96 0.90 0.85 0.87 0.94 1.00 1.03 1.15 1.29 1.35 1.39 1.35 1.29 1.33 1.27 1.35 1.41 1.41 1.40 1.38
0.40 0.34 0.32 0.35 0.42 0.45 0.48 0.55 0.63 0.71 0.79 0.79 0.79 0.81 0.79 0.79 0.84 0.90 0.92 0.95 0.99 1.06 1.08 1.04 1.08 1.11 1.14 1.13 1.08 1.03 1.07 1.12 1.17 1.21 1.17 1.13 1.14 1.17 1.25 1.26 1.27 1.32 1.36
0.35 0.31 0.28 0.36 0.48 0.53 0.52 0.53 0.61 0.72 0.81 0.85 0.81 0.75 0.77 0.82 0.85 0.87 0.88 0.90 0.95 0.98 1.12 1.16 1.25 1.32 1.31 1.19 1.17 1.14 1.03 1.11 1.09 1.04 1.02 1.00 1.04 1.08 1.13 1.07 1.11 1.20 1.26
0.35 0.31 0.32 0.40 0.47 0.49 0.48 0.44 0.49 0.59 0.70 0.79 0.85 0.89 0.86 0.81 0.84 0.87 0.87 0.90 0.96 1.06 1.17 1.22 1.31 1.32 1.20 1.20 1.17 1.11 1.06 1.10 1.10 1.06 1.03 0.93 0.93 0.90 0.90 0.92 0.97 1.06 1.13
0.33 0.40 0.43 0.43 0.44 0.46 0.44 0.43 0.43 0.54 0.74 0.85 0.86 0.96 1.04 0.96 1.02 1.05 1.03 1.03 1.07 1.18 1.24 1.36 1.42 1.42 1.41 1.28 1.12 1.06 1.03 1.10 1.14 1.16 1.13 0.90 0.75 0.82 0.85 0.92 0.90 0.88 0.94
0.35 0.37 0.38 0.37 0.39 0.41 0.44 0.45 0.47 0.53 0.72 0.89 0.94 1.10 1.25 1.17 1.19 1.20 1.22 1.27 1.34 1.37 1.46 1.51 1.45 1.44 1.42 1.29 1.06 0.98 0.89 0.94 1.02 1.06 1.07 1.02 0.95 0.96 1.00 1.05 1.04 0.99 0.96
0.36 0.34 0.36 0.38 0.40 0.44 0.47 0.50 0.63 0.74 0.84 0.97 1.11 1.28 1.44 1.51 1.49 1.45 1.54 1.58 1.59 1.63 1.71 1.77 1.73 1.63 1.58 1.38 1.05 0.91 0.83 0.90 0.95 0.99 0.99 0.97 0.89 0.85 0.77 0.83 0.92 0.96 0.94
0.34 0.37 0.43 0.44 0.43 0.49 0.54 0.61 0.76 0.95 1.06 1.11 1.14 1.25 1.43 1.54 1.58 1.59 1.73 1.86 1.87 1.86 1.87 1.78 1.65 1.58 1.56 1.46 1.15 0.98 0.93 1.00 1.04 1.11 1.09 1.00 0.92 0.84 0.70 0.73 0.84 0.85 0.87
0.37 0.41 0.46 0.53 0.58 0.63 0.72 0.84 0.93 1.03 1.06 1.07 1.11 1.20 1.43 1.71 1.75 1.81 1.88 1.97 2.00 2.01 2.00 1.89 1.78 1.71 1.67 1.59 1.25 1.06 1.03 1.10 1.14 1.08 1.07 1.01 0.91 0.74 0.64 0.62 0.69 0.72 0.76
0.42 0.44 0.47 0.53 0.61 0.71 0.87 0.97 0.99 1.01 1.06 1.08 1.15 1.29 1.54 1.65 1.74 1.89 1.94 2.09 2.18 2.14 2.08 2.06 1.92 1.84 1.77 1.53 1.26 1.05 1.03 1.13 1.25 1.25 1.20 1.14 0.98 0.76 0.64 0.55 0.51 0.54 0.58
0.45 0.50 0.52 0.56 0.64 0.75 0.94 1.08 1.07 1.07 1.07 1.08 1.13 1.24 1.38 1.48 1.62 1.69 1.68 1.77 1.88 1.89 1.90 1.89 1.83 1.81 1.84 1.64 1.27 1.07 1.03 1.11 1.24 1.36 1.41 1.22 1.03 0.89 0.75 0.69 0.62 0.57 0.56
0.55 0.58 0.58 0.62 0.66 0.72 0.89 1.03 1.05 1.08 1.08 1.04 1.01 1.10 1.28 1.36 1.43 1.55 1.57 1.66 1.73 1.78 1.85 1.87 1.80 1.77 1.85 1.79 1.48 1.23 1.10 1.05 1.06 1.11 1.13 1.06 1.01 0.91 0.80 0.71 0.61 0.52 0.54
0.49 0.51 0.54 0.58 0.61 0.67 0.85 0.99 1.02 1.06 1.09 1.06 1.02 1.08 1.19 1.28 1.36 1.48 1.56 1.58 1.60 1.59 1.63 1.67 1.65 1.65 1.75 1.71 1.47 1.27 1.14 1.05 1.04 1.08 1.13 1.12 1.11 1.01 0.91 0.82 0.75 0.71 0.70
0.47 0.50 0.54 0.56 0.55 0.60 0.72 0.82 1.00 1.15 1.20 1.12 1.05 1.04 1.05 1.14 1.21 1.30 1.30 1.22 1.21 1.19 1.17 1.20 1.15 1.15 1.31 1.31 1.09 0.96 0.98 0.97 0.94 0.97 1.05 1.11 1.14 1.08 0.99 0.93 0.87 0.87 0.83